Regional Weather Roundup
Issued by NWS

Home | Current Version | Previous Version | Graphics & Text | Print | Product List | Glossary On
Versions: 1 2 3 4 5 6 7 8 9 10 11 12 13 14 15 16 17 18 19 20 21 22 23 24 25 26 27 28 29 30 31 32 33 34 35 36 37 38 39 40 41 42 43 44 45 46 47 48 49 50
000
ASUS43 KBIS 240820
RWRND

NORTH DAKOTA REGIONAL WEATHER ROUNDUP
NATIONAL WEATHER SERVICE BISMARCK ND
300 AM CDT THU APR 24 2014

NOTE: "FAIR" INDICATES FEW OR NO CLOUDS BELOW 12,000 FEET WITH NO
SIGNIFICANT WEATHER AND/OR OBSTRUCTIONS TO VISIBILITY.


NDZ001>003-009>011-017-240900-
NORTHWEST NORTH DAKOTA

CITY           SKY/WX    TMP DP  RH WIND       PRES   REMARKS
WILLISTON      CLEAR     43  26  51 W16       29.66R
MINOT          PTCLDY    41  38  89 S7        29.66F
MINOT AFB      MOCLDY    36  36 100 S7        29.66S
$$

NDZ018>021-031>035-040>046-240900-
SOUTHWEST NORTH DAKOTA

CITY           SKY/WX    TMP DP  RH WIND       PRES   REMARKS
BISMARCK       MOCLDY    39  32  76 CALM      29.74R
DICKINSON      CLEAR     37  23  56 W12       29.71R
GARRISON         N/A     36  35  96 S7        29.69F
HETTINGER ARPT PTCLDY    31  24  75 NW5       29.78R
$$

NDZ004>008-012>016-024-026-027-054-240900-
NORTHEAST NORTH DAKOTA

CITY           SKY/WX    TMP DP  RH WIND       PRES   REMARKS
GRAND FORKS    CLOUDY    38  37  97 SE13      29.79F FOG
GRND FRKS AFB  CLOUDY    38  38  99 SE9       29.79F
DEVILS LAKE    CLOUDY    37  34  87 SE9       29.72F
$$

NDZ022-023-025-028>030-036>039-047>053-240900-
SOUTHEAST NORTH DAKOTA

CITY           SKY/WX    TMP DP  RH WIND       PRES   REMARKS
FARGO          CLOUDY    42  38  85 SE10      29.78F
JAMESTOWN      MOCLDY    35  35 100 CALM      29.72F FOG
$$




USA.gov is the U.S. government's official web portal to all federal, state and local government web resources and services.